Wind_Speed
24 24 23 22 21 21 21 21 19 19 21 21 21 20 19 19 18 16 15 13 12 12 11 10 10 11 11 11 11 11 10 10 10 11 11 11 10 9 9 9 9 8 9 10
24 23 23 23 23 23 22 21 20 21 22 23 23 22 21 20 19 18 16 15 13 13 13 12 12 11 11 12 12 11 11 11 12 12 12 11 11 9 9 9 10 9 9 10
24 24 24 24 24 24 23 22 21 22 23 24 25 24 22 21 20 19 18 17 16 15 15 15 14 13 12 12 12 12 12 12 13 13 13 12 11 10 10 10 11 11 11 10
25 25 25 24 24 23 23 22 22 23 24 24 24 24 22 22 21 20 19 18 17 16 15 15 14 14 14 13 14 13 13 13 14 14 14 14 13 12 12 11 12 12 12 12
25 25 26 25 23 23 22 22 23 23 25 26 26 26 23 22 22 21 20 19 18 17 15 14 15 15 15 15 15 14 14 14 15 15 14 14 14 13 13 12 12 12 13 13
24 24 24 23 23 23 22 23 23 24 25 26 25 26 23 22 22 22 21 20 19 18 17 15 16 16 16 16 16 15 15 16 16 15 14 13 13 12 13 13 14 14 13 14
24 24 23 23 23 23 23 23 24 25 26 25 23 25 23 21 22 22 22 22 21 19 18 18 17 17 17 17 16 17 17 16 17 16 16 14 13 12 13 14 15 15 16 16
23 23 23 23 23 24 24 24 25 26 26 25 25 25 23 21 22 22 23 23 23 21 20 19 19 18 18 18 18 18 18 18 18 18 17 16 15 15 14 15 16 17 17 17
22 22 23 24 24 24 25 25 25 26 27 27 27 26 24 22 22 23 24 23 23 21 20 20 20 20 20 20 20 20 20 19 19 19 18 17 17 17 17 17 17 18 18 18
22 22 23 24 24 24 25 25 26 27 27 28 27 26 24 23 23 23 23 22 22 22 21 21 22 22 22 23 22 21 21 20 20 20 19 19 19 18 18 19 20 20 20 19
22 23 23 24 25 25 26 26 26 27 28 29 28 26 23 22 23 23 23 23 23 23 23 23 24 24 23 23 23 23 22 22 21 21 21 21 20 19 19 19 20 20 21 20
22 23 23 24 25 26 27 27 28 28 28 28 28 26 23 23 24 23 22 23 23 23 24 23 23 23 22 22 22 23 23 22 22 22 22 21 21 20 20 20 21 21 21 22
23 24 24 24 25 26 27 27 27 27 28 28 27 25 23 23 24 24 23 23 23 24 24 24 23 23 22 22 23 23 22 23 23 23 23 22 22 22 22 22 22 23 23 24
25 25 25 25 25 26 27 27 27 27 28 28 27 26 24 23 24 24 24 24 23 23 23 23 24 23 23 23 24 23 23 23 24 24 23 23 24 24 23 23 24 24 25 24
25 26 26 25 25 25 26 27 26 27 27 28 27 27 25 23 23 24 24 24 23 23 23 23 24 23 23 24 24 24 25 25 25 25 24 25 25 25 25 25 26 26 26 26
25 26 26 26 25 25 25 25 26 27 28 28 28 27 26 24 24 23 23 23 24 24 24 24 24 24 25 25 26 26 26 25 25 25 25 25 26 26 26 27 27 27 27 27
25 26 26 26 26 26 26 25 26 27 27 28 28 26 26 25 24 24 23 23 23 24 25 25 25 26 25 26 26 26 26 26 25 26 26 26 27 27 28 28 28 27 27 27
25 26 27 26 26 26 26 26 26 26 26 27 27 27 26 26 26 25 24 24 24 25 26 26 26 25 25 25 25 26 26 26 26 26 26 27 27 28 28 29 28 28 28 28
24 25 26 27 26 26 26 26 26 26 26 26 27 26 26 27 26 26 25 24 24 25 26 26 25 24 23 24 24 25 25 26 26 26 26 27 28 27 27 27 27 27 28 28
24 25 26 26 27 26 26 26 25 26 26 27 27 27 26 26 26 25 25 25 25 25 26 25 24 23 23 24 24 24 24 24 24 25 25 26 27 27 26 25 26 26 26 27
24 24 25 25 26 26 26 25 25 25 25 25 26 26 26 26 26 26 26 26 24 23 24 24 24 24 24 23 23 23 23 23 23 24 25 25 25 25 25 25 25 25 25 25
23 24 24 24 24 24 25 25 24 25 25 25 25 25 25 25 25 25 26 26 25 24 24 24 24 24 24 23 23 23 23 23 23 24 25 24 24 25 24 24 24 24 25 24
22 23 24 24 24 23 24 24 24 24 25 26 26 26 26 25 25 25 25 26 26 25 25 25 25 25 24 24 24 24 24 24 24 24 24 24 25 24 24 24 24 24 24 24
23 23 24 24 23 23 23 23 24 24 25 26 27 27 27 26 26 26 26 26 26 26 26 25 26 27 26 26 26 26 25 25 24 24 24 24 24 25 24 24 24 24 24 23
23 23 24 24 24 24 24 24 24 24 25 26 27 27 27 27 27 27 27 27 27 27 26 26 25 25 26 26 26 25 25 25 25 24 24 24 24 24 24 24 24 23 23 23
24 24 24 24 24 24 24 24 24 24 24 25 26 26 27 27 27 27 28 27 27 25 25 24 24 24 24 25 25 24 25 24 24 24 23 23 23 23 23 23 23 22 22 22
Wind_Direction
237 239 241 245 245 246 247 250 251 251 253 255 256 256 257 256 259 259 260 268 275 280 284 282 287 293 298 305 305 304 305 301 298 294 295 294 289 281 280 279 282 284 284 287
238 240 241 241 243 246 248 251 252 251 251 253 254 254 255 257 258 259 263 268 270 274 274 275 281 284 287 296 302 305 303 301 297 294 295 296 291 288 287 284 281 282 286 284
240 240 240 240 243 245 249 252 253 251 252 255 255 254 253 256 257 258 262 263 266 271 273 275 277 278 277 284 293 301 300 302 300 296 292 290 286 284 284 285 278 277 281 280
239 239 239 242 244 248 251 254 254 252 252 255 258 257 254 256 257 258 260 261 264 268 271 276 278 278 276 279 286 292 296 301 302 298 292 286 279 278 278 279 277 275 279 283
238 238 239 242 245 249 251 252 253 253 253 254 258 260 258 258 258 260 260 260 262 267 269 275 277 278 277 276 279 284 288 294 296 294 290 283 277 273 273 274 275 279 281 284
238 239 239 241 243 246 248 249 252 253 254 255 257 260 260 259 258 258 259 260 263 266 268 271 273 274 273 274 276 280 285 290 291 290 286 282 277 271 270 272 275 277 280 283
239 240 241 241 242 244 247 249 252 253 254 257 256 258 261 260 259 260 260 262 264 265 267 270 273 275 272 272 275 278 283 287 289 288 288 281 274 271 270 270 273 276 277 279
241 240 241 242 244 246 248 251 254 257 259 260 259 261 263 264 263 262 262 263 264 265 266 269 271 273 271 271 274 276 280 283 284 285 287 281 274 272 270 270 271 275 277 276
244 244 243 244 245 247 250 252 255 258 260 261 260 262 263 263 263 260 261 263 262 263 265 265 267 268 268 270 272 274 276 278 279 280 280 277 273 272 272 272 272 274 274 276
244 245 242 243 243 245 249 252 254 257 261 261 263 263 264 263 261 260 260 262 262 262 264 264 265 266 268 269 270 271 273 275 277 276 276 273 273 271 272 272 273 274 275 275
248 247 243 243 244 247 249 252 255 258 259 262 264 265 265 263 262 262 261 261 262 260 261 262 263 267 268 267 268 271 273 274 275 275 274 274 273 273 275 277 277 278 278 275
248 249 246 246 248 250 251 253 255 257 259 261 264 265 264 262 262 261 261 261 260 260 260 261 263 264 265 267 268 270 272 273 275 275 273 273 274 274 275 275 275 275 277 277
250 251 251 249 248 249 251 254 255 254 256 258 261 264 265 263 263 260 260 260 260 260 261 263 265 266 265 266 268 270 272 273 274 275 272 272 273 273 274 275 275 273 276 276
254 254 253 254 253 252 252 253 254 253 255 258 260 263 265 264 262 259 259 260 260 260 263 264 266 267 267 267 269 270 272 272 273 274 272 272 272 273 274 274 275 274 274 275
254 255 255 255 255 254 254 254 254 255 256 258 261 263 264 264 264 262 258 258 260 261 264 265 266 267 269 268 269 271 272 273 273 274 272 273 273 273 273 273 274 273 273 274
255 254 255 255 256 255 254 253 255 257 258 259 261 261 261 262 265 264 260 257 258 259 263 266 269 270 271 270 271 273 273 272 272 273 274 274 274 273 273 274 274 275 274 276
255 255 255 256 256 254 253 254 256 257 258 259 260 261 260 261 264 265 263 258 258 260 264 266 270 270 271 272 271 271 272 273 273 273 273 274 275 274 274 274 274 274 275 276
256 257 257 257 254 254 256 256 257 258 259 259 260 259 260 262 264 264 264 262 260 261 266 268 269 271 271 271 271 270 271 272 273 272 272 273 275 274 273 273 274 275 275 275
255 256 257 257 257 257 257 257 257 258 259 258 259 260 261 262 262 262 263 263 263 263 265 268 269 270 271 272 272 272 270 271 273 272 273 274 274 274 273 272 273 275 275 274
256 256 257 258 258 258 257 257 258 259 259 258 260 261 260 261 261 262 265 267 267 267 267 268 270 270 272 273 273 273 273 273 273 273 274 273 272 272 275 275 273 274 275 275
257 258 257 257 258 258 258 258 257 257 258 259 261 262 260 260 261 262 264 266 267 267 267 269 270 270 272 272 271 271 272 274 275 276 277 275 273 274 276 277 276 275 276 276
262 261 258 257 257 260 260 259 257 257 257 258 258 260 261 261 262 263 264 265 265 265 266 268 270 271 271 270 269 270 272 274 275 277 279 275 274 275 277 276 276 276 276 277
261 260 259 258 258 260 261 260 257 257 257 257 257 257 258 259 262 264 265 266 267 267 267 269 270 272 271 268 268 270 273 274 275 277 278 275 275 275 277 277 277 277 276 277
259 259 259 258 258 259 260 260 260 259 259 258 257 257 257 258 260 263 265 266 268 268 268 268 269 270 269 270 272 272 272 273 275 276 276 277 275 276 275 276 276 275 275 275
258 259 260 260 260 259 259 260 260 259 259 258 256 257 258 256 258 260 263 265 267 269 268 268 270 270 269 269 271 271 270 271 273 275 274 274 276 277 274 273 274 273 274 275
260 260 261 262 260 258 258 258 259 261 260 259 258 258 258 258 258 260 263 264 267 268 269 270 269 268 268 271 271 270 270 271 272 272 272 273 274 276 275 274 273 273 274 274
Height
5840 5844 5845 5848 5849 5851 5852 5853 5855 5856 5856 5856 5857 5858 5859 5860 5860 5861 5863 5863 5864 5864 5864 5863 5863 5863 5862 5861 5861 5860 5859 5858 5858 5858 5858 5857 5857 5857 5857 5857 5858 5858 5858 5857
5837 5839 5842 5843 5844 5846 5848 5849 5851 5852 5851 5851 5852 5854 5855 5856 5857 5858 5859 5860 5860 5860 5860 5861 5861 5861 5860 5859 5859 5858 5857 5856 5856 5856 5855 5855 5855 5854 5855 5855 5855 5855 5855 5854
5832 5835 5836 5838 5839 5841 5843 5845 5846 5847 5847 5847 5848 5849 5851 5851 5852 5854 5855 5856 5857 5857 5857 5857 5857 5857 5857 5857 5856 5855 5854 5854 5854 5852 5852 5852 5852 5852 5852 5852 5853 5853 5852 5852
5826 5829 5831 5833 5835 5837 5839 5841 5841 5842 5841 5842 5843 5843 5846 5847 5848 5850 5851 5852 5853 5854 5854 5854 5853 5853 5853 5853 5853 5853 5852 5852 5851 5850 5850 5849 5849 5849 5850 5850 5850 5850 5849 5849
5821 5823 5825 5828 5831 5832 5834 5835 5836 5836 5836 5837 5837 5838 5841 5842 5843 5845 5846 5847 5849 5850 5850 5850 5849 5849 5850 5849 5849 5849 5849 5849 5848 5847 5846 5845 5845 5846 5846 5846 5846 5846 5846 5845
5816 5818 5820 5823 5825 5826 5828 5830 5830 5830 5831 5832 5833 5833 5835 5837 5839 5840 5841 5843 5844 5845 5846 5845 5845 5845 5845 5845 5846 5846 5845 5845 5844 5843 5842 5842 5842 5842 5842 5843 5843 5843 5842 5842
5811 5813 5815 5817 5819 5821 5822 5824 5825 5825 5825 5827 5829 5828 5831 5833 5834 5835 5837 5838 5839 5840 5840 5841 5841 5841 5842 5842 5842 5842 5841 5841 5840 5839 5838 5838 5838 5838 5838 5839 5839 5839 5838 5838
5805 5808 5810 5812 5814 5816 5818 5820 5821 5821 5822 5823 5824 5823 5827 5828 5829 5830 5831 5832 5833 5834 5835 5836 5836 5836 5836 5837 5837 5837 5837 5836 5836 5836 5835 5835 5834 5834 5834 5834 5834 5834 5833 5833
5800 5803 5805 5807 5809 5811 5812 5814 5816 5816 5816 5817 5818 5819 5821 5823 5823 5824 5825 5826 5827 5828 5829 5830 5830 5830 5831 5831 5832 5832 5832 5831 5831 5831 5831 5830 5830 5830 5830 5830 5829 5829 5829 5828
5794 5797 5799 5801 5803 5805 5807 5808 5809 5810 5810 5810 5812 5813 5816 5817 5818 5819 5819 5820 5822 5823 5824 5824 5824 5825 5825 5825 5826 5826 5826 5826 5826 5826 5826 5825 5825 5825 5824 5824 5824 5824 5823 5823
5789 5791 5794 5795 5797 5799 5801 5802 5803 5804 5804 5805 5805 5810 5811 5811 5812 5813 5814 5815 5816 5816 5817 5818 5818 5818 5818 5818 5819 5820 5820 5820 5820 5820 5820 5819 5819 5819 5819 5819 5819 5818 5818 5817
5784 5786 5788 5790 5792 5793 5795 5796 5797 5798 5799 5799 5800 5805 5805 5805 5806 5806 5808 5808 5809 5810 5811 5811 5812 5812 5812 5812 5812 5813 5814 5814 5814 5814 5814 5813 5813 5814 5813 5813 5813 5812 5812 5812
5778 5780 5782 5784 5787 5788 5788 5789 5791 5792 5793 5793 5794 5799 5799 5799 5800 5800 5801 5802 5803 5804 5804 5805 5805 5806 5806 5806 5806 5806 5807 5807 5807 5807 5807 5807 5807 5807 5807 5807 5806 5806 5806 5805
5773 5774 5777 5779 5780 5781 5782 5783 5784 5785 5786 5787 5789 5791 5792 5793 5793 5794 5795 5796 5797 5797 5798 5799 5799 5799 5800 5800 5800 5800 5800 5800 5800 5800 5800 5801 5801 5800 5800 5800 5800 5799 5799 5798
5766 5768 5769 5771 5773 5774 5776 5777 5778 5779 5780 5781 5783 5784 5785 5786 5787 5787 5788 5789 5790 5791 5792 5792 5792 5792 5793 5793 5793 5793 5794 5794 5794 5793 5793 5793 5793 5793 5793 5793 5793 5792 5791 5791
5760 5761 5763 5765 5766 5768 5769 5770 5772 5773 5773 5774 5776 5777 5779 5779 5780 5781 5782 5783 5784 5785 5786 5786 5786 5786 5786 5786 5786 5787 5787 5787 5786 5787 5786 5786 5786 5786 5786 5785 5785 5784 5784 5783
5754 5755 5757 5758 5760 5760 5762 5765 5765 5766 5767 5768 5769 5771 5771 5773 5774 5775 5776 5777 5778 5778 5779 5779 5779 5779 5779 5779 5779 5779 5779 5779 5779 5779 5779 5779 5778 5778 5778 5777 5777 5776 5775 5775
5747 5748 5749 5751 5753 5754 5758 5758 5759 5760 5761 5762 5762 5764 5765 5766 5767 5769 5769 5770 5771 5771 5772 5772 5772 5771 5771 5771 5771 5771 5771 5771 5772 5771 5771 5771 5771 5770 5770 5769 5768 5768 5767 5767
5741 5742 5743 5744 5745 5747 5750 5751 5752 5753 5754 5755 5756 5757 5758 5759 5760 5762 5762 5763 5763 5764 5765 5764 5764 5764 5764 5764 5763 5763 5764 5764 5764 5764 5764 5763 5763 5762 5761 5761 5760 5759 5759 5759
5734 5736 5737 5737 5738 5740 5744 5744 5745 5747 5748 5748 5749 5750 5751 5752 5754 5756 5756 5756 5756 5757 5757 5757 5757 5757 5757 5757 5756 5756 5756 5757 5757 5756 5756 5756 5755 5755 5754 5753 5752 5751 5751 5750
5728 5729 5730 5731 5731 5733 5736 5737 5738 5741 5742 5742 5742 5743 5744 5746 5747 5749 5749 5749 5749 5750 5750 5750 5750 5750 5750 5750 5750 5750 5750 5750 5749 5749 5748 5748 5747 5747 5746 5745 5744 5744 5743 5743
5721 5722 5723 5724 5725 5729 5728 5729 5731 5732 5733 5734 5735 5736 5738 5739 5740 5741 5742 5742 5743 5743 5743 5743 5743 5744 5743 5743 5743 5743 5743 5742 5742 5742 5741 5741 5740 5740 5739 5738 5737 5736 5736 5736
5714 5716 5716 5718 5721 5721 5721 5722 5723 5725 5726 5727 5728 5729 5730 5732 5733 5734 5735 5735 5736 5736 5736 5736 5736 5737 5736 5736 5736 5735 5735 5735 5735 5735 5734 5733 5733 5732 5732 5731 5730 5729 5729 5729
5708 5709 5710 5711 5713 5714 5714 5715 5716 5717 5718 5719 5721 5722 5723 5725 5726 5727 5728 5728 5728 5729 5729 5729 5729 5729 5729 5729 5729 5729 5728 5728 5728 5727 5727 5726 5726 5725 5725 5724 5723 5722 5722 5721
5701 5702 5703 5704 5706 5707 5708 5708 5709 5710 5711 5712 5713 5715 5715 5717 5718 5719 5720 5721 5721 5721 5721 5721 5721 5721 5722 5722 5722 5721 5721 5721 5720 5720 5720 5719 5718 5718 5717 5717 5716 5715 5715 5714
5695 5695 5697 5698 5699 5700 5701 5702 5702 5703 5704 5705 5706 5707 5708 5709 5710 5712 5712 5713 5713 5713 5713 5714 5714 5714 5714 5714 5714 5714 5714 5713 5713 5713 5713 5712 5711 5711 5710 5709 5709 5708 5708 5707